Regional Weather Roundup
Issued by NWS

Home | Current Version | Previous Version | Graphics & Text | Print | Product List | Glossary Off
Versions: 1 2 3 4 5 6 7 8 9 10 11 12 13 14 15 16 17 18 19 20 21 22 23 24 25 26 27 28 29 30 31 32 33 34 35 36 37 38 39 40 41 42 43 44 45 46 47 48 49 50

000
ASUS43 KTOP 310908
RWRKS

WEATHER ROUNDUP FOR KANSAS
NATIONAL WEATHER SERVICE GOODLAND KS
400 AM CDT FRI OCT 31 2014

NOTE:  "FAIR" INDICATES FEW OR NO CLOUDS BELOW 12,000 FEET WITH NO
SIGNIFICANT WEATHER AND/OR OBSTRUCTIONS TO VISIBILITY.

KSZ001>006-013>018-027>032-041>047-311000-
NORTHWEST KANSAS

CITY           SKY/WX    TMP DP  RH WIND       PRES   REMARKS
GOODLAND       CLEAR     30  27  88 CALM      30.47R
HAYS           CLEAR     37  28  70 N9        30.45R
HILL CITY      CLEAR     35  30  82 NE5       30.48R
RUSSELL        CLEAR     36  32  85 N10       30.43R WCI  28
$$

KSZ061>065-074>080-084>089-311000-
SOUTHWEST KANSAS

CITY           SKY/WX    TMP DP  RH WIND       PRES   REMARKS
DODGE CITY     CLEAR     37  31  78 N10       30.43R WCI  30
ELKHART          N/A     41  25  53 N2          N/A
GARDEN CITY    CLEAR     34  29  82 N7        30.44R
GREAT BEND     CLEAR     37  30  75 N13       30.43R WCI  29
LIBERAL        CLEAR     43  30  61 NE8       30.43S
PRATT          CLEAR     37  34  87 N16       30.41R WCI  28
$$

KSZ066>073-081>083-090>101-311000-
SOUTHEAST KANSAS

CITY           SKY/WX    TMP DP  RH WIND       PRES   REMARKS
CHANUTE        CLEAR     46  40  79 N10       30.28R
COFFEYVILLE    CLEAR     48  40  73 N12       30.26R
HUTCHINSON     CLOUDY    45  36  70 N15G25    30.39R
MEDICINE LODGE   N/A     43  36  76 N13       30.38R
NEWTON         CLOUDY    45  34  65 N23       30.37R
PARSONS        CLEAR     47  41  80 N13       30.28R
WICHITA INTL   PTCLDY    45  37  73 N15G25    30.35R
WICHITA JABRA  CLOUDY    44  38  79 N18       30.35R
WICHITA MCCONL CLEAR     43  39  85 N15       30.35R
WINFIELD       CLEAR     45  38  76 N24       30.33R
$$

KSZ007>012-019>026-033>040-048>060-102>105-311000-
NORTHEAST KANSAS

CITY           SKY/WX    TMP DP  RH WIND       PRES   REMARKS
CONCORDIA      CLEAR     39  32  76 N15G26    30.42R WCI  31
EMPORIA        CLOUDY    46  38  73 N20G30    30.33R
LAWRENCE       LGT RAIN  46  37  71 N21G33    30.32R
MANHATTAN      CLOUDY    45  34  65 N13G20    30.39R
MARYSVILLE     CLOUDY    37  32  81 N20       30.41R WCI  27
OLATHE IND     CLOUDY    47  38  71 N26G36    30.30R
OLATHE EXE     CLOUDY    49  39  68 N24G31    30.27R
SALINA         MOCLDY    44  34  67 N16       30.42R
TOPEKA BILLARD CLOUDY    45  36  70 N20G31    30.36R
TOPEKA FORBES  CLOUDY    46  37  71 N24G32    30.33R
$$



USA.gov is the U.S. government's official web portal to all federal, state and local government web resources and services.